Location: Amsterdam
(30.7274°N, 84.4357°W)
Time: 03:46:59
(UTC+00:00)

Altair - Pass Details

Date: 08 August 2024
Orbit: 1501 x 1682 km, 47.2° (Epoch: 07 September)

Event Time Altitude Azimuth Distance (km) Brightness Sun altitude
Rises 23:58:31 0° 309° (NW) 4,730 11.5 5.0°
Reaches altitude 10° 00:01:46 10° 315° (NW) 3,722 10.8 4.3°
Maximum altitude 00:10:48 51° 29° (NNE) 1,848 8.0 2.5°
Drops below altitude 10° 00:19:38 10° 104° (ESE) 3,646 8.8 0.6°
Enters shadow 00:22:45 - 109° (ESE) 4,619 9.3 0.0°
Sets 00:22:47 0° 109° (ESE) 4,626 - 0.0°
